Ketchikan, AK

4:26 AM AKDT on August 15, 2018 (GMT -0800)
Ketchikan International

Weather History for PAKT - May, 2018

Change the Weather History Date:

Saturday, May 26, 2018

  Actual Average Record
Temperature  
Mean Temperature 47 °F -  
Max Temperature 51 °F 57 °F 75 °F (2005)
Min Temperature 44 °F 42 °F 35 °F (1973)
Degree Days  
Heating Degree Days 18    
Moisture  
Dew Point 44 °F    
Average Humidity 88    
Maximum Humidity 93    
Minimum Humidity 79    
Precipitation  
Precipitation 0.46 in - - ()
Sea Level Pressure  
Sea Level Pressure 29.84 in    
Wind  
Wind Speed 14 mph (SE)    
Max Wind Speed 28 mph    
Max Gust Speed 36 mph    
Visibility 6 miles    
Events Rain    
Averages and records for this station are not official NWS values.
T = Trace of Precipitation, MM = Missing Value Source: NWS Daily Summary

Daily Weather History Graph

Daily Weather History Graph

Search for Another Location

Airport or City:

Astronomy

May. 26, 2018 Rise Set
Actual Time 4:19 AM AKDT 9:08 PM AKDT
Civil Twilight 3:26 AM AKDT 10:02 PM AKDT
Nautical Twilight 1:55 AM AKDT 11:36 PM AKDT
Astronomical Twilight Sun does not set Sun does not set
Moon 5:45 PM AKDT (5/26) 3:47 AM AKDT (5/26)
Length of Visible Light 18h 35m
Length of Day
16h 49m
Waxing Gibbous, 92% of the Moon is Illuminated
May 26
Waxing Gibbous
May 29
Full
Jun 6
Last Quarter
Jun 13
New
Jun 20
First Quarter

Hourly Weather History & Observations

Time (AKDT) Temp. Windchill Dew Point Humidity Pressure Visibility Wind Dir Wind Speed Gust Speed Precip Events Conditions
12:37 AM 46.0 °F 40.2 °F 42.1 °F 86% 29.94 in 10.0 mi SE 12.7 mph - N/A   Overcast
12:53 AM 46.0 °F 40.6 °F 41.0 °F 83% 29.95 in 10.0 mi SE 11.5 mph - N/A   Overcast
1:53 AM 46.0 °F 41.0 °F 42.1 °F 86% 29.94 in 10.0 mi SE 10.4 mph - N/A   Overcast
2:05 AM 46.0 °F 41.4 °F 41.0 °F 83% 29.93 in 10.0 mi SSE 9.2 mph - N/A   Overcast
2:53 AM 46.0 °F 41.9 °F 39.9 °F 79% 29.93 in 10.0 mi SE 8.1 mph - N/A   Overcast
3:35 AM 46.0 °F 40.6 °F 41.0 °F 83% 29.91 in 10.0 mi SE 11.5 mph - 0.00 in Rain Light Rain
3:53 AM 45.0 °F 41.8 °F 41.0 °F 86% 29.91 in 10.0 mi SSE 5.8 mph - 0.00 in Rain Light Rain
4:53 AM 45.0 °F 38.9 °F 39.0 °F 80% 29.90 in 7.0 mi SSE 12.7 mph 20.7 mph 0.03 in Rain Light Rain
5:06 AM 44.1 °F 38.6 °F 39.0 °F 82% 29.89 in 7.0 mi SE 10.4 mph - 0.01 in Rain Light Rain
5:53 AM 44.1 °F 38.6 °F 39.9 °F 85% 29.87 in 10.0 mi SSE 10.4 mph - 0.02 in Rain Light Rain
6:53 AM 44.6 °F 38.1 °F 41.0 °F 87% 29.86 in 10.0 mi SSE 13.8 mph - N/A Rain Light Rain
7:53 AM 44.6 °F 37.4 °F 41.0 °F 87% 29.84 in 8.0 mi SSE 16.1 mph 23.0 mph N/A Rain Light Rain
7:54 AM 44.6 °F 37.2 °F 41.0 °F 87% 29.84 in 8.0 mi SSE 17.3 mph 23.0 mph N/A Rain Light Rain
8:53 AM 44.6 °F 36.6 °F 39.2 °F 81% 29.82 in 8.0 mi SE 19.6 mph 31.1 mph N/A Rain Light Rain
9:53 AM 44.6 °F 35.1 °F 42.8 °F 93% 29.81 in 6.0 mi SE 27.6 mph 34.5 mph N/A Rain Light Rain
10:53 AM 46.4 °F 37.5 °F 41.0 °F 81% 29.81 in 4.0 mi SE 27.6 mph 35.7 mph N/A Rain Rain
11:53 AM 46.4 °F 37.7 °F 42.8 °F 87% 29.81 in 3.0 mi SE 26.5 mph 33.4 mph N/A Rain Rain
12:28 PM 46.4 °F 38.1 °F 42.8 °F 87% 29.81 in 2.0 mi SE 24.2 mph 32.2 mph N/A Rain Rain
12:53 PM 46.4 °F 40.1 °F 44.6 °F 93% 29.81 in 2.0 mi SSE 15.0 mph - N/A Rain Rain
1:53 PM 46.4 °F 40.4 °F 44.6 °F 93% 29.82 in 5.0 mi SE 13.8 mph 24.2 mph N/A Rain Light Rain
2:22 PM 48.0 °F - 45.0 °F 89% 29.81 in 2.5 mi SE 17.3 mph 23.0 mph 0.00 in Rain Light Rain
2:24 PM 46.9 °F - 45.0 °F 93% 29.81 in 5.0 mi SE 17.3 mph 24.2 mph 0.00 in Rain Light Rain
2:53 PM 48.2 °F - 44.6 °F 87% 29.82 in 6.0 mi SE 16.1 mph 23.0 mph N/A Rain Light Rain
3:53 PM 50.0 °F - 46.4 °F 87% 29.83 in 5.0 mi SE 18.4 mph 27.6 mph N/A Rain Light Rain
4:53 PM 50.0 °F - 46.4 °F 87% 29.83 in 4.0 mi SE 17.3 mph 24.2 mph N/A Rain Light Rain
5:53 PM 50.0 °F - 46.4 °F 87% 29.82 in 4.0 mi SE 17.3 mph 27.6 mph N/A Rain Light Rain
6:53 PM 50.0 °F - 46.9 °F 89% 29.81 in 6.0 mi SE 15.0 mph 25.3 mph 0.02 in Rain Light Rain
7:53 PM 50.0 °F - 46.0 °F 86% 29.79 in 7.0 mi SE 16.1 mph 25.3 mph 0.05 in Rain Light Rain
8:53 PM 50.0 °F - 46.9 °F 89% 29.79 in 8.0 mi SE 12.7 mph 25.3 mph 0.05 in Rain Light Rain
9:16 PM 50.0 °F - 46.9 °F 89% 29.79 in 6.0 mi SE 13.8 mph 20.7 mph 0.03 in Rain Light Rain
9:53 PM 50.0 °F - 46.9 °F 89% 29.80 in 5.0 mi SE 19.6 mph 27.6 mph 0.05 in Rain Light Rain
10:08 PM 50.0 °F - 48.0 °F 93% 29.80 in 1.8 mi SE 18.4 mph 29.9 mph 0.05 in Rain Rain
10:15 PM 50.0 °F - 48.0 °F 93% 29.80 in 2.0 mi SE 17.3 mph 25.3 mph 0.07 in Rain Light Rain
10:35 PM 50.0 °F - 48.0 °F 93% 29.80 in 3.0 mi SE 18.4 mph 26.5 mph 0.10 in Rain Light Rain
10:46 PM 50.0 °F - 48.0 °F 93% 29.81 in 2.0 mi SE 17.3 mph 25.3 mph 0.12 in Rain Light Rain
10:53 PM 50.0 °F - 48.0 °F 93% 29.81 in 3.0 mi SE 17.3 mph 25.3 mph 0.12 in Rain Light Rain
11:11 PM 50.0 °F - 48.0 °F 93% 29.81 in 2.5 mi SE 15.0 mph - 0.05 in Rain Rain
11:22 PM 50.0 °F - 48.0 °F 93% 29.81 in 3.0 mi SE 12.7 mph - 0.08 in Rain Rain
11:43 PM 50.0 °F - 46.0 °F 86% 29.83 in 8.0 mi SSE 6.9 mph - 0.12 in Rain Light Rain
11:53 PM 50.0 °F - 45.0 °F 83% 29.84 in 9.0 mi SSE 8.1 mph - 0.12 in Rain Light Rain